Estación de Los Colihues

Ultimos registro cada 15 minutos 47
Estación Fecha / Hora Temperatura Humedad Lluvia Velocidad Dirección Radiación Presion
47 Los Colihues 06-05-2026 11:30 13,5 96,8 0 2 291 149,4 1003,2
46 Los Colihues 06-05-2026 11:15 13,9 99 0 1 352 45,6 1002,7
45 Los Colihues 06-05-2026 11:00 13,5 98,9 0,4 1 334 50,6 1002
44 Los Colihues 06-05-2026 10:45 13,4 99,1 0,6 1 345 54,4 1001,8
43 Los Colihues 06-05-2026 10:30 13,2 99,3 1,6 1,5 1 46,9 1001,8
42 Los Colihues 06-05-2026 10:15 13,2 97,6 0,6 2,5 24 43,1 1001,4
41 Los Colihues 06-05-2026 10:00 13,1 97,6 2,2 3 28 20,6 1001,3
40 Los Colihues 06-05-2026 09:45 13,3 96,3 0 3 32 18,1 1000,8
39 Los Colihues 06-05-2026 09:30 13,2 96,7 0 2,5 31 43,1 1000,9
38 Los Colihues 06-05-2026 09:15 13 97,4 0,2 2 22 25,6 1000,6
37 Los Colihues 06-05-2026 09:00 13 97,5 0,2 2,5 37 4,4 1001
36 Los Colihues 06-05-2026 08:45 13 97,5 0 2,5 39 0,6 1000,9
35 Los Colihues 06-05-2026 08:30 12,9 97,8 1 3,5 38 0,6 1000,4
34 Los Colihues 06-05-2026 08:15 13 97,8 1 3 32 0,6 1000,6
33 Los Colihues 06-05-2026 08:00 13 98 0,4 3 35 0,6 1000,6
32 Los Colihues 06-05-2026 07:45 13 97,6 0,6 2,5 39 0,6 1000,2
31 Los Colihues 06-05-2026 07:30 13 97,1 0,2 2,5 35 0,6 1000,6
30 Los Colihues 06-05-2026 07:15 13 97,2 0 2 35 0,6 1000,7
29 Los Colihues 06-05-2026 07:00 12,9 97,3 0,2 3 31 0,6 1000,4
28 Los Colihues 06-05-2026 06:45 12,9 97,7 0,8 2,5 39 0,6 1000,4
27 Los Colihues 06-05-2026 06:30 12,9 97,9 0,2 2 31 0,6 1000,7
26 Los Colihues 06-05-2026 06:15 12,8 98,4 0,2 2 28 0,6 1000,3
25 Los Colihues 06-05-2026 06:00 12,9 97,7 0 2 25 0,6 1000,7
24 Los Colihues 06-05-2026 05:45 12,9 97,6 0,4 2,5 28 0,6 1000,4
23 Los Colihues 06-05-2026 05:30 13 97,3 0 3 27 0,6 1000,4
22 Los Colihues 06-05-2026 05:15 13 98,5 0 3 31 0,6 1000,1
21 Los Colihues 06-05-2026 05:00 12,8 99,6 0 3 38 0,6 1000,2
20 Los Colihues 06-05-2026 04:45 12,8 99,6 0 2 41 0,6 1000,2
19 Los Colihues 06-05-2026 04:30 12,8 99,6 0 2,5 38 0,6 1000,4
18 Los Colihues 06-05-2026 04:15 12,8 99,6 0,2 2 39 0,6 1000,6
17 Los Colihues 06-05-2026 04:00 12,8 99,6 0,2 1,5 41 0,6 1001
16 Los Colihues 06-05-2026 03:45 12,8 99,5 0,6 2 38 0,6 1001
15 Los Colihues 06-05-2026 03:30 12,9 99,4 0,6 2 35 0,6 1000,9
14 Los Colihues 06-05-2026 03:15 12,9 99,2 0,4 2 34 0,6 1001,2
13 Los Colihues 06-05-2026 03:00 13,1 98,9 1,6 2 34 0,6 1001,3
12 Los Colihues 06-05-2026 02:45 13,1 98,5 0,8 1,5 15 0,6 1001,2
11 Los Colihues 06-05-2026 02:30 13,1 98,2 0,4 2 27 0,6 1001,6
10 Los Colihues 06-05-2026 02:15 13,2 98,2 3 2,5 21 0,6 1001,6
9 Los Colihues 06-05-2026 02:00 13,3 96 3,4 2 11 0,6 1001,5
8 Los Colihues 06-05-2026 01:45 13,7 93,8 3 3 21 0,6 1001,1
7 Los Colihues 06-05-2026 01:30 14,1 90,8 1,6 2,5 10 0,6 1001,3
6 Los Colihues 06-05-2026 01:15 15,2 82,5 0 2 13 0,6 1001,4
5 Los Colihues 06-05-2026 01:00 14,9 84,4 0 2,5 27 0,6 1000,7
4 Los Colihues 06-05-2026 00:45 14,7 84,7 0 3 31 0,6 1001
3 Los Colihues 06-05-2026 00:30 14,6 85 0 2,5 44 0,6 1000,6
2 Los Colihues 06-05-2026 00:15 14,7 84,3 0 2,5 39 0,6 1000,6
1 Los Colihues 06-05-2026 00:00 14,8 84,4 0 3 39 0,6 1001,5